Weather History for NW Arkansas Airport, AR

Change the Weather History Date:

Tuesday, January 1, 2013

  Actual Average Record
Temperature  
Mean Temperature 30 °F -  
Max Temperature 36 °F - - ()
Min Temperature 24 °F - - ()
Degree Days  
Heating Degree Days 34    
Moisture  
Dew Point 31 °F    
Average Humidity 98    
Maximum Humidity 100    
Minimum Humidity 88    
Precipitation  
Precipitation 0.00 in - - ()
Sea Level Pressure  
Sea Level Pressure 30.14 in    
Wind  
Wind Speed 7 mph (North)    
Max Wind Speed 12 mph    
Max Gust Speed -    
Visibility 3 miles    
Events Fog , Snow    
T = Trace of Precipitation, MM = Missing Value Source: NWS Daily Summary

Daily Weather History Graph

Daily Weather History Graph

Search for Another Location

Airport:

Trip Planner

Search our weather history database for the weather conditions in past years. The results will help you decide how hot, cold, wet, or windy it might be!

Date:

Astronomy

Jan. 01, 2013 Rise Set
Actual Time 7:28 AM CST 5:13 PM CST
Civil Twilight 7:00 AM CST 5:42 PM CST
Nautical Twilight 6:27 AM CST 6:14 PM CST
Astronomical Twilight 5:56 AM CST 6:45 PM CST
Moon 9:36 PM CST (1/1) 9:48 AM CST (1/1)
Length of Visible Light 10h 41m
Length of Day
9h 44m
Waning Gibbous, 83% of the Moon is Illuminated
Jan 1
Waning Gibbous
Jan 4
Last Quarter
Jan 11
New
Jan 18
First Quarter
Jan 26
Full

Hourly Weather History & Observations

Time (CST) Temp. Windchill Dew Point Humidity Pressure Visibility Wind Dir Wind Speed Gust Speed Precip Events Conditions
12:02 AM 35.6 °F 30.7 °F 35.6 °F 100% 30.04 in 2.0 mi WNW 5.8 mph - N/A   Overcast
12:13 AM 35.6 °F 30.7 °F 35.6 °F 100% 30.04 in 1.8 mi WNW 5.8 mph - N/A   Overcast
12:22 AM 35.6 °F 31.7 °F 35.6 °F 100% 30.04 in 2.0 mi WNW 4.6 mph - N/A   Overcast
12:53 AM 36.0 °F 30.3 °F 36.0 °F 100% 30.04 in 3.0 mi NW 6.9 mph - N/A   Overcast
1:02 AM 35.6 °F 30.7 °F 35.6 °F 100% 30.02 in 2.0 mi NW 5.8 mph - N/A   Overcast
1:09 AM 35.6 °F 31.7 °F 35.6 °F 100% 30.03 in 1.8 mi WNW 4.6 mph - N/A   Overcast
1:22 AM 35.6 °F 31.7 °F 35.6 °F 100% 30.02 in 2.0 mi NNW 4.6 mph - N/A   Overcast
1:53 AM 36.0 °F 32.1 °F 36.0 °F 100% 30.05 in 2.0 mi NNW 4.6 mph - N/A   Overcast
2:20 AM 35.6 °F 31.7 °F 35.6 °F 100% 30.03 in 4.0 mi NNW 4.6 mph - N/A   Overcast
2:53 AM 36.0 °F 33.3 °F 36.0 °F 100% 30.04 in 6.0 mi North 3.5 mph - N/A   Overcast
3:10 AM 35.6 °F 31.7 °F 35.6 °F 100% 30.03 in 6.0 mi North 4.6 mph - N/A   Overcast
4:28 AM 35.6 °F 29.2 °F 35.6 °F 100% 30.05 in 7.0 mi NNW 8.1 mph - N/A   Overcast
4:53 AM 35.1 °F 28.6 °F 35.1 °F 100% 30.06 in 6.0 mi North 8.1 mph - N/A   Overcast
5:53 AM 35.1 °F 28.6 °F 35.1 °F 100% 30.09 in 3.0 mi North 8.1 mph - N/A   Overcast
6:04 AM 33.8 °F 27.0 °F 33.8 °F 100% 30.07 in 1.8 mi North 8.1 mph - N/A   Overcast
7:53 AM 33.1 °F 26.1 °F 33.1 °F 100% 30.09 in 0.5 mi North 8.1 mph - N/A Fog Fog
8:05 AM 33.8 °F 25.8 °F 33.8 °F 100% 30.11 in 1.5 mi North 10.4 mph - N/A   Overcast
8:51 AM 32.0 °F 24.2 °F 32.0 °F 100% 30.14 in 0.5 mi North 9.2 mph - N/A Fog Fog
8:53 AM 32.0 °F 23.6 °F 32.0 °F 100% 30.16 in 0.5 mi North 10.4 mph - N/A Fog Fog
9:16 AM 32.0 °F 24.2 °F 32.0 °F 100% 30.13 in 0.2 mi North 9.2 mph - N/A Fog Fog
9:26 AM 32.0 °F 23.6 °F 32.0 °F 100% 30.14 in 0.5 mi North 10.4 mph - N/A Fog Fog
9:53 AM 32.0 °F 24.8 °F 32.0 °F 100% 30.18 in 1.0 mi North 8.1 mph - N/A   Overcast
10:43 AM 32.0 °F 24.8 °F 32.0 °F 100% 30.17 in 1.0 mi North 8.1 mph - N/A   Overcast
10:53 AM 32.0 °F 23.6 °F 32.0 °F 100% 30.19 in 1.2 mi North 10.4 mph - N/A   Overcast
11:10 AM 30.2 °F 20.8 °F 30.2 °F 100% 30.17 in 0.5 mi NNW 11.5 mph - N/A Fog Light Freezing Fog
11:28 AM 30.2 °F 21.3 °F 30.2 °F 100% 30.16 in 1.0 mi NNW 10.4 mph - N/A   Overcast
11:53 AM 30.9 °F 21.7 °F 30.9 °F 100% 30.18 in 1.2 mi NNW 11.5 mph - N/A   Overcast
12:14 PM 30.2 °F 21.3 °F 30.2 °F 100% 30.15 in 2.0 mi North 10.4 mph - N/A   Overcast
12:18 PM 30.2 °F 20.8 °F 30.2 °F 100% 30.14 in 1.8 mi North 11.5 mph - N/A   Overcast
12:31 PM 30.2 °F 22.6 °F 30.2 °F 100% 30.15 in 2.0 mi North 8.1 mph - N/A   Overcast
12:53 PM 30.9 °F 22.2 °F 30.0 °F 96% 30.17 in 2.0 mi North 10.4 mph - N/A   Overcast
1:04 PM 30.2 °F 20.8 °F 30.2 °F 100% 30.15 in 1.5 mi North 11.5 mph - N/A   Overcast
1:16 PM 30.2 °F 20.8 °F 30.2 °F 100% 30.15 in 1.8 mi North 11.5 mph - N/A   Overcast
1:23 PM 30.2 °F 21.9 °F 30.2 °F 100% 30.15 in 2.0 mi North 9.2 mph - N/A   Overcast
1:35 PM 30.2 °F 21.9 °F 28.4 °F 93% 30.15 in 1.8 mi North 9.2 mph - N/A   Overcast
1:53 PM 30.0 °F 21.1 °F 28.9 °F 96% 30.18 in 2.0 mi North 10.4 mph - 0.00 in Snow Light Snow
2:00 PM 30.2 °F 21.3 °F 28.4 °F 93% 30.16 in 1.5 mi North 10.4 mph - 0.00 in Snow Light Snow
2:36 PM 28.4 °F 19.1 °F 28.4 °F 100% 30.17 in 3.0 mi North 10.4 mph - 0.00 in   Overcast
2:53 PM 28.9 °F 20.4 °F 28.0 °F 96% 30.19 in 2.5 mi North 9.2 mph - 0.00 in Snow Light Snow
3:05 PM 30.2 °F 22.6 °F 28.4 °F 93% 30.17 in 1.8 mi North 8.1 mph - 0.00 in Snow Light Snow
3:13 PM 30.2 °F 21.3 °F 28.4 °F 93% 30.17 in 2.5 mi North 10.4 mph - 0.00 in Snow Light Snow
3:21 PM 30.2 °F 21.3 °F 28.4 °F 93% 30.17 in 4.0 mi North 10.4 mph - 0.00 in   Overcast
3:53 PM 28.9 °F 21.1 °F 28.0 °F 96% 30.20 in 4.0 mi North 8.1 mph - 0.00 in   Overcast
4:53 PM 28.9 °F 21.1 °F 27.0 °F 92% 30.22 in 5.0 mi North 8.1 mph - N/A   Overcast
5:53 PM 28.9 °F 20.4 °F 27.0 °F 92% 30.22 in 7.0 mi North 9.2 mph - N/A   Overcast
6:53 PM 28.0 °F 21.7 °F 26.1 °F 92% 30.24 in 6.0 mi North 5.8 mph - N/A   Overcast
7:53 PM 28.0 °F 20.0 °F 25.0 °F 88% 30.26 in 7.0 mi NNW 8.1 mph - N/A   Overcast
8:16 PM 26.6 °F 18.2 °F 26.6 °F 100% 30.22 in 7.0 mi North 8.1 mph - N/A   Overcast
8:41 PM 26.6 °F 17.5 °F 24.8 °F 93% 30.20 in 7.0 mi NNE 9.2 mph - N/A   Overcast
8:53 PM 26.1 °F 17.6 °F 25.0 °F 96% 30.24 in 7.0 mi North 8.1 mph - N/A   Overcast
9:53 PM 26.1 °F 17.6 °F 23.0 °F 88% 30.25 in 7.0 mi North 8.1 mph - N/A   Overcast
10:53 PM 25.0 °F 17.1 °F 24.1 °F 96% 30.26 in 6.0 mi NNE 6.9 mph - N/A   Overcast
11:53 PM 24.1 °F 17.0 °F 23.0 °F 96% 30.26 in 5.0 mi NE 5.8 mph - N/A   Overcast